STARLINK-30147, 57511

Orbit data source: Space-Track

STARLINK-30147, 57511 is a payload satellite owned by SpaceX/Seattle (US) in LEO that was launched on Mon, 07 Aug 2023 UTC via an FALCON 9 launch vehicle from the Air Force Eastern Test Range (AFETR). Payload-class satellites include a variety of spacecraft equipped with specific instruments for various scientific and technological missions. These include communications satellites like Starlink; space stations such as the ISS; scientific satellites like the Hubble; Earth observation satellites from companies like Planet Labs, Umbra, and HawkEye 360; GPS; miniature CubeSats for education and research; and military/defense satellites.

Loading next visibility...
Identifier
57511, 2023-113S
Orbit
LEO
Country
Flag of USUS
Related business
Manufacturer
SpaceX/Seattle
Mission
Operational Commercial Communications
Bus & Motor
STARLINK V2M, Unknown motor
Mass
730 kg wet, ~700 kg dry
Launch date (UTC)
2023-08-07 (3 years ago)
Launch vehicle
FALCON 9
Launch site
Air Force Eastern Test Range (AFETR)
Object type
Payload
Rocket body
Debris
Shape & HBR
Box + 2 Pan, 17.7 m
Radar Cross Section
33.884 m², Large (>1 m²)

Expand to show TLE details & history
Last TLE update: 2 days ago

TLE from 2 days ago
0 STARLINK-30147
1 57511U 23113S   26171.31936497  .00000300  00000-0  20411-4 0  9993
2 57511  43.0005 156.2536 0001240 271.4942  88.5768 15.27574387159373
Epoch: 2026-06-20T07:39Z
TLE epoch observation values (Epoch: 2026-06-20T07:39:53.133Z)
Latitude
0.00001°
Longitude
132.74653°
Altitude
482.82 km
Speed
7.626 km/s
True Right ascension
10h 25m 00s
True Declination
0° 00' 00"
Sunlit
Object was in daylight at epoch
Visualization orbit readout
Latitude
Unknown
Longitude
Unknown
Altitude
Unknown
Speed
Unknown
Apparent Right ascension
Unknown
Apparent Declination
Unknown
Sunlit
N/A
Visualization observer readout
Local Sidereal Time
21:30:04
Azimuth
Unknown
Elevation
Unknown
Doppler factor
Unknown
Orbital elements
Apogee altitude
485.862 km
Perigee altitude
484.16 km
Semi-major axis
6,863.148 km
Eccentricity
0.00012
Inclination
43.0005°
RAAN
156.2536°
Arg. of periapsis
271.4942°
True anomaly
88.59101°
Mean anomaly
88.5768°
Eccentric anomaly
88.5839°
Mean motion
3.81732 °/min
Orbital period
94.31 mins
BSTAR
0.000020411
Loading maneuver chart data...
Computing Atmospheric mass density...
Loading historical data...
Loading historical data...
Loading historical data...
Loading historical data...
Loading historical data...
Loading historical data...
Loading historical data...

Documentation

Showing up to 5 results
|